Вернуться в каталог

STARLINK-33765

АктивенСвязьVLEO
NORAD 63473·PAYLOAD·🇺🇸 United States

Запущен Apr 6, 2025 с Cape Canaveral Space Force Station

Loading…

Ближайшие Пролёты (ближайшие 24 часа)

TLE

СвежийSource: CelesTrak SupGP

Эпоха: Sep 14, 2026, 20:49 UTC

1 63473C 25070P   26257.86784722  .00010168  00000+0  36843-3 0  2572
2 63473  43.0012 271.5328 0001593 273.0759 225.0987 15.27561162    14

Отслеживайте STARLINK-33765 в реальном времени с AllMySat

Download on the App Store